Regional Weather Roundup
Issued by NWS

Home | Current Version | Previous Version | Graphics & Text | Print | Product List | Glossary On
Versions: 1 2 3 4 5 6 7 8 9 10 11 12 13 14 15 16 17 18 19 20 21 22 23 24 25 26 27 28 29 30 31 32 33 34 35 36 37 38 39 40 41 42 43 44 45 46 47 48 49 50
000
ASUS43 KMKX 201220
RWRWI

WISCONSIN REGIONAL WEATHER ROUNDUP
NATIONAL WEATHER SERVICE MILWAUKEE/SULLIVAN WI
600 AM CST TUE FEB 20 2018

NOTE: "FAIR" INDICATES FEW OR NO CLOUDS BELOW 12,000 FEET WITH NO
SIGNIFICANT WEATHER AND/OR OBSTRUCTIONS TO VISIBILITY.

WIZ001-002-006>008-014>016-023>028-201300-
NORTHWEST WISCONSIN

CITY           SKY/WX    TMP DP  RH WIND       PRES   REMARKS
SUPERIOR ARPT  LGT SNOW  16  14  92 NE10      29.91F VSB 3/4 WCI   4
6HR MIN TEMP:  16; 6HR MAX TEMP:  22; 6HR PCP:  0.03;

ASHLAND        LGT SNOW  20  18  92 NE10      29.87R VSB 3/4 WCI   9
6HR MIN TEMP:  19; 6HR MAX TEMP:  20; 6HR PCP: TRACE;

HAYWARD        LGT SNOW  19  16  88 N3        29.82R FOG
6HR MIN TEMP:  18; 6HR MAX TEMP:  19; 6HR PCP: TRACE;

SIREN          CLOUDY    19  17  90 N3        29.85F
6HR MIN TEMP:  19; 6HR MAX TEMP:  19;

CUMBERLAND     LGT SNOW  18  16  93 N3        29.81F
RICE LAKE      LGT SNOW  19  18  93 N6        29.82F WCI  11
6HR MIN TEMP:  19; 6HR MAX TEMP:  20;

CHETEK         CLOUDY    20  18  93 NE3       29.80F
6HR MIN TEMP:  19; 6HR MAX TEMP:  20;

LADYSMITH      CLOUDY    21  19  93 NW3       29.81R
6HR MIN TEMP:  19; 6HR MAX TEMP:  21;

EAU CLAIRE     CLOUDY    21  19  92 CALM      29.81S
6HR MIN TEMP:  20; 6HR MAX TEMP:  21; 6HR PCP:  0.03;

MENOMONIE      CLOUDY    22  19  91 NW5       29.83S WCI  15
6HR MIN TEMP:  21; 6HR MAX TEMP:  22; 6HR PCP:  0.01;

NEW RICHMOND   LGT SNOW  19  17  88 N3        29.84S
6HR MIN TEMP:  19; 6HR MAX TEMP:  20;

OSCEOLA        CLOUDY    20  19  96 N5        29.88S WCI  14
6HR MIN TEMP:  20; 6HR MAX TEMP:  20;

$$

WIZ003>005-009-010-017-018-201300-
NORTH CENTRAL WISCONSIN

CITY           SKY/WX    TMP DP  RH WIND       PRES   REMARKS
MANITOWISH WTR CLOUDY    19  19 100 NE3       29.76S
6HR MIN TEMP:  16; 6HR MAX TEMP:  19;

ARBOR VITAE    LGT SNOW  22  20  93 NE3       29.76F
6HR MIN TEMP:  22; 6HR MAX TEMP:  22;

WOODRUFF       LGT SNOW  22  20  93 NE3       29.76F
6HR MIN TEMP:  22; 6HR MAX TEMP:  22;

RHINELANDER    FRZ RAIN  23  23 100 E12       29.75F FOG     WCI  12
6HR MIN TEMP:  21; 6HR MAX TEMP:  23; 6HR PCP: TRACE;

EAGLE RIVER    MIX PCPN  22  22 100 SE5       29.76F WCI  16
6HR MIN TEMP:  20; 6HR MAX TEMP:  22;

LAND O LAKES   LGT SNOW  22  21  96 CALM      29.77F
6HR MIN TEMP:  19; 6HR MAX TEMP:  21;

PHILLIPS       CLOUDY    20  20 100 CALM      29.77R
6HR MIN TEMP:  17; 6HR MAX TEMP:  19;

TOMAHAWK       LGT SNOW  24  23  96 NE5       29.74F WCI  18
6HR MIN TEMP:  20; 6HR MAX TEMP:  24;

MEDFORD        MIX PCPN  25  24  93 SE3       29.76R
6HR MIN TEMP:  21; 6HR MAX TEMP:  25; 6HR PCP:  0.03;

MERRILL        LGT SNOW  27  26  99 SE7       29.75F WCI  19
6HR MIN TEMP:  23; 6HR MAX TEMP:  27; 6HR PCP:  0.06;

$$

WIZ029-030-035-036-043>047-201300-
CENTRAL WISCONSIN

CITY           SKY/WX    TMP DP  RH WIND       PRES   REMARKS
WAUSAU         FRZ RAIN  28  27  96 SE8       29.73F WCI  20
6HR MIN TEMP:  26; 6HR MAX TEMP:  28; 6HR PCP:  0.05;

MOSINEE        FRZ RAIN  28  28 100 E7        29.76F WCI  21
MARSHFIELD     CLOUDY    28  28 100 S3        29.75R
6HR MIN TEMP:  25; 6HR MAX TEMP:  28; 6HR PCP:  0.06;

STEVENS POINT  MIX PCPN  28  28 100 E10       29.76F WCI  18
6HR MIN TEMP:  25; 6HR MAX TEMP:  28; 6HR PCP:  0.07;

WAUPACA        MIX PCPN  32  31  95 E7        29.78F WCI  26
6HR MIN TEMP:  29; 6HR MAX TEMP:  32; 6HR PCP:  0.04;

WAUTOMA        LGT SNOW  30  30 100 E9        29.78F FOG     WCI  22
6HR MIN TEMP:  28; 6HR MAX TEMP:  31; 6HR PCP:  0.26;

WISC RAPIDS    FRZ RAIN  30  27  88 SE8       29.75F WCI  22
6HR MIN TEMP:  27; 6HR MAX TEMP:  30; 6HR PCP:  0.12;

CAMP DOUGLAS   FRZ RAIN  32  32 100 CALM      29.78R
6HR MIN TEMP:  29; 6HR MAX TEMP:  32; 6HR PCP:  0.21;

$$

WIZ011>013-019>022-031-037>040-048>050-201300-
NORTHEAST WISCONSIN

CITY           SKY/WX    TMP DP  RH WIND       PRES   REMARKS
ANTIGO         MIX PCPN  26  26 100 SE9       29.78S WCI  16
6HR MIN TEMP:  24; 6HR MAX TEMP:  26;

SHAWANO        RAIN      31  29  93 CALM      29.83S
6HR MIN TEMP:  29; 6HR MAX TEMP:  31; 6HR PCP:  0.02;

OCONTO         CLOUDY    29  29  99 NW3       29.83R
6HR MIN TEMP:  28; 6HR MAX TEMP:  31;

STURGEON BAY   FOG       31  31 100 N10       29.80R VSB 1/2 WCI  22
6HR MIN TEMP:  31; 6HR MAX TEMP:  34; 6HR PCP: TRACE;

GREEN BAY      FRZ RAIN  31  30  96 N6        29.85R FOG     WCI  25
6HR MIN TEMP:  30; 6HR MAX TEMP:  31; 6HR PCP:  0.01;

MANITOWOC      MIX PCPN  32  32 100 NW7       29.81R FOG     WCI  26
6HR MIN TEMP:  32; 6HR MAX TEMP:  34; 6HR PCP:  0.01;

APPLETON       RAIN      30  30 100 NW6       29.82R FOG     WCI  24
CLINTONVILLE   LGT SNOW  30  29  95 NE3       29.81F
6HR MIN TEMP:  28; 6HR MAX TEMP:  30; 6HR PCP:  0.07;

OSHKOSH        FRZ RAIN  31  31 100 CALM      29.82F FOG
6HR MIN TEMP:  29; 6HR MAX TEMP:  31; 6HR PCP:  0.14;

$$

WIZ032>034-041-042-053>061-201300-
SOUTHWEST WISCONSIN

CITY           SKY/WX    TMP DP  RH WIND       PRES   REMARKS
LA CROSSE      CLOUDY    32  30  92 N6        29.80S WCI  26
6HR MIN TEMP:  31; 6HR MAX TEMP:  33; 6HR PCP:  0.18;

SPARTA         FLURRIES  30  30  99 W3        29.81R
6HR MIN TEMP:  28; 6HR MAX TEMP:  31; 6HR PCP:  0.13;

VIROQUA        CLOUDY    32  32 100 NW5       29.78R WCI  27
6HR MIN TEMP:  30; 6HR MAX TEMP:  32; 6HR PCP:  0.23;

BOSCOBEL       CLOUDY    34  32  92 NW3       29.78S
6HR MIN TEMP:  33; 6HR MAX TEMP:  35; 6HR PCP:  0.31;

PRAIRIE DU CHI CLOUDY    34  33  96 W6        29.81R WCI  29
6HR MIN TEMP:  33; 6HR MAX TEMP:  35; 6HR PCP:  0.38;

PLATTEVILLE    MOCLDY    34  34 100 SE10      29.75F WCI  26
6HR MIN TEMP:  34; 6HR MAX TEMP:  37; 6HR PCP:  0.32;

$$

WIZ056-057-062-063-064-067-068-201300-
SOUTH CENTRAL WISCONSIN

CITY           SKY/WX    TMP DP  RH WIND       PRES   REMARKS
REEDSBURG      LGT RAIN  31  31 100 CALM      29.76S
6HR MIN TEMP:  30; 6HR MAX TEMP:  31; 6HR PCP:  0.28;

BARABOO/DELLS  MIX PCPN  31  31  99 E7        29.77F WCI  24
6HR MIN TEMP:  30; 6HR MAX TEMP:  31; 6HR PCP:  0.18;

LONE ROCK      LGT RAIN  33  33 100 E9        29.77F FOG     WCI  25
6HR MIN TEMP:  32; 6HR MAX TEMP:  34; 6HR PCP:  0.43;

MINERAL POINT  LGT RAIN  36  36 100 SE10      29.75F WCI  28
MADISON        LGT RAIN  32  32 100 E3        29.83R FOG
6HR MIN TEMP:  32; 6HR MAX TEMP:  34; 6HR PCP:  0.30;

MIDDLETON      CLOUDY    34  34 100 SE5       29.80F WCI  30
6HR MIN TEMP:  33; 6HR MAX TEMP:  35; 6HR PCP:  0.29;

WATERTOWN      LGT RAIN  33  33 100 NW18G31   29.86R WCI  22
6HR MIN TEMP:  33; 6HR MAX TEMP:  36; 6HR PCP:  0.30;

MONROE         RAIN      36  36 100 NW6       29.82F WCI  31
JANESVILLE     LGT RAIN  41  41 100 NW17      29.83R VSB 1
$$

WIZ051-052-058>065-066-070>072-201300-
SOUTHEAST WISCONSIN

CITY           SKY/WX    TMP DP  RH WIND       PRES   REMARKS
MILWAUKEE      LGT RAIN  44  43  96 S3        29.79R FOG
6HR MIN TEMP:  37; 6HR MAX TEMP:  42; 6HR PCP:  0.34;

WAUKESHA       RAIN      43  43 100 SW3       29.80R
MILWAUKEE/TIMM RAIN      37  34  87 CALM      29.80R
RACINE         LGT RAIN  43  43 100 S6        29.80S VSB 1/2
6HR MIN TEMP:  37; 6HR MAX TEMP:  41; 6HR PCP:  0.34;

BURLINGTON     LGT RAIN  46  46  98 SW9       29.79R
6HR MIN TEMP:  43; 6HR MAX TEMP:  51; 6HR PCP:  0.26;

KENOSHA        LGT RAIN  55  53  93 SW13G21   29.80R
6HR MIN TEMP:  49; 6HR MAX TEMP:  58; 6HR PCP:  0.52;

FOND DU LAC    FRZ RAIN  32  30  92 N6        29.84R FOG     WCI  26
6HR MIN TEMP:  31; 6HR MAX TEMP:  34; 6HR PCP:  0.12;

SHEBOYGAN      RAIN      33  33 100 NW5       29.80R FOG     WCI  29
6HR MIN TEMP:  33; 6HR MAX TEMP:  35; 6HR PCP:  0.08;

WEST BEND      LGT SNOW  34  34 100 CALM      29.78S
JUNEAU         LGT SNOW  31  31 100 NW9G18    29.87R WCI  23
6HR MIN TEMP:  31; 6HR MAX TEMP:  33; 6HR PCP:  0.16;

$$

LSZ147-162-201300-
LAKE SUPERIOR

STATION/POSITION TIME  TEMP    WIND        PRES    WAVE
                       AIR SEA DIR/SP/G            HT/PER
                 (UTC) (F)     (DEG/KT/KT) (MB)    (FT/S)
DEVILS ISLAND    1200   22      40/ 11/ 12 1013.5R
SAXON HARBOR     1200   21      50/  6/ 15 1010.8
$$

LMZ867-665-643>646-201300-
LAKE MICHIGAN

STATION/POSITION TIME  TEMP    WIND        PRES    WA



USA.gov is the U.S. government's official web portal to all federal, state and local government web resources and services.